Regional Weather Roundup
Issued by NWS

Home | Current Version | Previous Version | Graphics & Text | Print | Product List | Glossary On
Versions: 1 2 3 4 5 6 7 8 9 10 11 12 13 14 15 16 17 18 19 20 21 22 23 24 25 26 27 28 29 30 31 32 33 34 35 36 37 38 39 40 41 42 43 44 45 46 47 48 49 50
000
ASUS43 KDTX 241010
RWRMI
MICHIGAN HOURLY REGIONAL WEATHER ROUNDUP
NATIONAL WEATHER SERVICE DETROIT/PONTIAC MI
600 AM EDT SUN SEP 24 2017

NOTE: "FAIR" INDICATES FEW OR NO CLOUDS BELOW 12,000 FEET WITH NO
SIGNIFICANT WEATHER AND/OR OBSTRUCTION TO VISIBILITY.

MIZ047>049-052>055-059>063-066>070-074>076-081>083-241100-
SOUTHEAST LOWER MICHIGAN

CITY           SKY/WX    TMP DP  RH WIND       PRES   REMARKS
ADRIAN         CLEAR     60  57  89 CALM      30.15S
ALMA           CLEAR     58  56  93 MISG      30.14S
ANN ARBOR      CLEAR     58  58 100 CALM      30.14S
BAD AXE        PTCLDY    61  59  92 CALM      30.15S
CARO           CLEAR     60  58  96 CALM      30.14S FOG
DETROIT CITY   CLEAR     67  63  87 CALM      30.14F
DETROIT        CLEAR     67  63  87 CALM      30.15S
FLINT          CLEAR     63  59  87 CALM      30.15R
GROSSE ILE     CLEAR     65  62  90 CALM      30.14R
HILLSDALE      PTCLDY    61  55  82 CALM      30.15S
HOWELL         CLEAR     63  60  92 CALM      30.15S

CITY           SKY/WX    TMP DP  RH WIND       PRES   REMARKS
JACKSON        CLEAR     63  59  87 CALM      30.15S
LAMBERTVILLE   CLEAR     64  61  92 CALM      30.14S FOG
LANSING        CLEAR     64  57  78 CALM      30.15S
LAPEER         FAIR      60  60  97 CALM      30.16S
MASON          CLEAR     62  59  91 CALM      30.15S
MONROE         CLEAR     62  60  93 CALM      30.14R FOG
PONTIAC        CLEAR     63  63 100 CALM      30.14F
PORT HOPE        N/A     72  63  73 SW6       30.12S
PORT HURON     FOG       61  59  94 CALM      30.15S VSB 1/2
TRI CITIES     CLEAR     67  63  87 CALM      30.15R
MIDLAND        FAIR      60  60  99 CALM      30.14R
TROY           CLEAR     67  60  78 CALM      30.16S
SAGINAW HB     CLEAR     61  59  94 CALM      30.14R
$$
MIZ043>046-050>051-056>058-064>065-071>073-077>080-241100-
SOUTHWEST LOWER MICHIGAN

CITY           SKY/WX    TMP DP  RH WIND       PRES   REMARKS
BATTLE CREEK   CLEAR     65  61  87 CALM      30.14S
BENTON HARBOR  CLEAR     65  60  84 E6        30.10S
BIG RAPIDS     CLEAR     61  59  94 CALM      30.14S
COLDWATER      CLEAR     61  60  96 SE3       30.14R
FREMONT        FAIR      65  63  93 CALM      30.12S
HOLLAND        CLEAR     62  59  90 CALM      30.12S
GRAND RAPIDS   CLEAR     63  60  90 SE6       30.13S
IONIA          FAIR      61  58  88 CALM      30.13S
KALAMAZOO      CLEAR     63  59  87 CALM      30.14R
LUDINGTON      CLEAR     62  61  95 CALM      30.10S
MARSHALL       CLEAR     60  59  98 CALM      30.14S
MUSKEGON       CLEAR     66  62  87 SE3       30.12R
SOUTH HAVEN    CLEAR     68  62  81 CALM      30.11R
$$
MIZ016>042-241100-
NORTHERN LOWER MICHIGAN

CITY           SKY/WX    TMP DP  RH WIND       PRES   REMARKS
ALPENA         CLEAR     63  63 100 CALM      30.13S
BELLAIRE       CLEAR     60  59  96 CALM      30.10F FOG
CADILLAC       CLEAR     61  56  85 CALM      30.14S HAZE
CHARLEVOIX     PTCLDY    67  67 100 SE3       30.13R
FRANKFORT      CLEAR     63  63 100 CALM      30.09S
GAYLORD        CLEAR     62  59  90 CALM      30.15S
GRAYLING       CLEAR     56  54  92 CALM      30.15F
HARBOR SPRINGS PTCLDY    65  64  95 CALM      30.11R
HOUGHTON LAKE  CLEAR     64  61  90 CALM      30.16S
MANISTEE       CLEAR     63  61  94 E5        30.10S FOG
OSCODA         CLEAR     72  60  67 SW3       30.13R
PELLSTON       CLOUDY    59  58  96 CALM      30.11R FOG
ROGERS CITY    CLEAR     71  65  83 S3        30.12S
TRAVERSE CITY  CLEAR     68  64  87 CALM      30.08F
$$
MIZ007>008-015-241100-
EASTERN UPPER MICHIGAN

CITY           SKY/WX    TMP DP  RH WIND       PRES   REMARKS
KINROSS        PTCLDY    66  64  93 CALM      30.10S
MACKINAC ISLAN CLEAR     67  67  97 SW3       30.10S
NEWBERRY       CLEAR     65  64  97 S5        30.09R
S. S. MARIE    CLEAR     65  63  93 CALM      30.10R FOG
MUNISING         N/A     72  67  84 S6        30.04S
$$
MIZ004>006-011>014-085-241100-
CENTRAL UPPER MICHIGAN

CITY           SKY/WX    TMP DP  RH WIND       PRES   REMARKS
MANISTIQUE     CLEAR     65  59  81 S6        30.08R HAZE
ESCANABA       PTCLDY    60  60 100 CALM      30.06S FOG
MENOMINEE      CLEAR     66  65  96 CALM      30.07R
SAWYER-GWINN   PTCLDY    65  64  96 S3        30.07S FOG
$$
MIZ001>003-009>011-084-241100-
WESTERN UPPER MICHIGAN

CITY           SKY/WX    TMP DP  RH WIND       PRES   REMARKS
IRON MOUNTAIN  CLEAR     67  63  87 CALM      30.06R
HOUGHTON       CLOUDY    67  64  90 CALM      30.00S
COPPER HARBOR    N/A     67  64  90 VRB3      29.98F
IRONWOOD       CLEAR     73  64  73 S12       30.01R
$$

ABBREVIATIONS USED IN REMARKS
   TC - TEMPERATURE IN CELSIUS
  WCI - WIND CHILL INDEX
   HX - HEAT INDEX
  VSB - VISIBILITY





USA.gov is the U.S. government's official web portal to all federal, state and local government web resources and services.